Regional Weather Roundup
Issued by NWS Kansas City/Pleasant Hill, MO

Home | Current Version | Previous Version | Text Only | Print | Product List | Glossary On
Versions: 1 2 3 4 5 6 7 8 9 10 11 12 13 14 15 16 17 18 19 20 21 22 23 24 25 26 27 28 29 30 31 32 33 34 35 36 37 38 39 40 41 42 43 44 45 46 47 48 49 50
768
ASUS43 KEAX 261610
RWREAX

WEATHER ROUNDUP FOR EASTERN KANSAS AND NORTHWEST MISSOURI
NATIONAL WEATHER SERVICE KANSAS CITY/PLEASANT HILL MO
1100 AM CDT TUE JUL 26 2016

KSZ040-057-103>105-MOZ028-029-037-043-261700-
...KANSAS CITY METROPOLITAN AREA...

CITY           SKY/WX    TMP DP  RH WIND       PRES   REMARKS
K.C. INTL      PTSUNNY   81  67  62 E9        30.08S
K.C. DOWNTOWN  MOSUNNY   84  66  54 E13       30.06S
LEES SUMMIT    MOSUNNY   81  68  64 NE8       30.08S
OLATHE - IXD   MOSUNNY   82  67  60 E9        30.08S
OLATHE - OJC   MOSUNNY   81  66  60 E10       30.07F
LAWRENCE       MOSUNNY   82  69  64 E8        30.07S

$$

MOZ001>008-011>017-020>025-030>033-038>040-044>046-053-054-261700-
...NORTHERN AND CENTRAL MISSOURI...

CITY           SKY/WX    TMP DP  RH WIND       PRES   REMARKS
ST. JOSEPH     MOSUNNY   82  68  62 SE6       30.07F
MOSBY          SUNNY     81  63  54 E7        30.07S
WHITEMAN AFB   NOT AVBL
CLINTON        MOSUNNY   81  72  74 NE9       30.06S
SEDALIA        MOSUNNY   82  71  69 E5        30.07F
WARSAW         NOT AVBL
CHILLICOTHE      N/A     83  66  56 VRB5      30.09S
KIRKSVILLE     PTSUNNY   83  63  50 E9        30.09F

$$

MOZ041-047>049-056>058-063>065-088>090-097-261700-
...EASTERN AND SOUTHERN MISSOURI...

CITY           SKY/WX    TMP DP  RH WIND       PRES   REMARKS
ST. LOUIS INTL MOSUNNY   84  73  69 E3        30.04F HX  90
SPIRIT OF STL  PTSUNNY   84  76  76 VRB7      30.02S HX  93
COLUMBIA       SUNNY     82  72  71 NE8       30.06S
JEFFERSON CITY SUNNY     83  73  72 CALM      30.05R
ROLLA          PTSUNNY   81  74  79 CALM      30.05S
OSAGE BEACH    CLOUDY    81  75  83 NE5       30.06S
SPRINGFIELD    CLOUDY    84  72  67 VRB5      30.05R
BRANSON        PTSUNNY   77  72  83 NE5       30.07R
JOPLIN         CLOUDY    81  74  79 NE6       30.03S
WEST PLAINS    CLOUDY    83  74  74 VRB5      30.07S

$$

IAZ060-094-KSZ022-034>040-054-083-096-NEZ052-066-093-261700-
...KANSAS...SOUTHEAST NEBRASKA AND IOWA...

CITY           SKY/WX    TMP DP  RH WIND       PRES   REMARKS
TOPEKA         NOT AVBL
MANHATTAN      SUNNY     81  70  69 NE8       30.06F
EMPORIA        MOSUNNY   81  70  69 NE10      30.06S
CHANUTE        PTSUNNY   83  73  72 NE8       30.04S
WICHITA        PTSUNNY   83  73  72 E12       30.04F
OMAHA          MOSUNNY   83  63  50 SE13      30.08S
LINCOLN        MOSUNNY   83  68  60 SE9       30.09F
FALLS CITY     SUNNY     80  69  69 SE7       30.07F
LAMONI         SUNNY     79  66  64 E7        30.09F
DES MOINES     MOSUNNY   83  62  49 E8        30.08S

$$





USA.gov is the U.S. government's official web portal to all federal, state and local government web resources and services.